Tracking 19832 objects as of 25-Aug-2019
HD Live streaming from Space Station
objects crossing your sky now

GALAXY 26 (TELSTAR 6)

Track GALAXY 26 (TELSTAR 6) now!
GALAXY 26 (TELSTAR 6) is classified as:


NORAD ID: 25626
Int'l Code: 1999-005A
Perigee: 36,140.4 km
Apogee: 36,168.0 km
Inclination: 6.4 °
Period: 1,454.6 minutes
Semi major axis: 42525 km
RCS: 36.2015 m2 (large)
Launch date: February 15, 1999
Source: United States (US)
Launch site: TYURATAM MISSILE AND SPACE COMPLEX (TTMTR)

24 C-band, 28 Ku-band; U.S., southern Canada, Mexico, Caribbean.
aabbcc
Your satellite tracking list
Your tracking list is empty




NASA's NSSDC Master Catalog

Two Line Element Set (TLE):
1 25626U 99005A   19236.75740569 -.00000116 +00000-0 +00000-0 0  9997
2 25626 006.3775 067.3304 0003248 068.9971 298.1174 00.98999602019364
Source of the keplerian elements: AFSPC